IU2GZQ-13 Weather Reports


time (UTC)temp
C
wind
direction
speed
KPH
gust
KPH
rain 1hr
cm
rain 24hr
cm
rain mn
cm
humidity
%
barometer
mb
20260507182046 20 234 1.6 4.8 0.00 0.00 0.00 54 1013.7
20260507181123 20 235 1.6 4.8 0.00 0.00 0.00 53 1013.5
20260507180039 20 249 1.6 3.2 0.00 0.00 0.00 52 1013.5
20260507175035 21 251 3.2 6.4 0.00 0.00 0.00 51 1013.4
20260507174033 21 238 3.2 4.8 0.00 0.00 0.00 51 1013.3
20260507173109 21 262 3.2 4.8 0.00 0.00 0.00 49 1013.2
20260507172027 22 204 1.6 3.2 0.00 0.00 0.00 50 1013.2
20260507171024 22 208 1.6 9.7 0.00 0.00 0.00 49 1013.0
20260507170021 22 258 3.2 6.4 0.00 0.00 0.00 50 1013.0
20260507165037 22 208 1.6 3.2 0.00 0.00 0.00 49 1012.9
20260507164054 22 250 3.2 4.8 0.00 0.00 0.00 46 1012.9
20260507163152 23 230 3.2 6.4 0.00 0.00 0.00 48 1012.9
20260507162048 22 268 1.6 6.4 0.00 0.00 0.00 47 1012.8
20260507161045 22 295 1.6 6.4 0.00 0.00 0.00 46 1012.9
20260507155020 22 233 3.2 12.9 0.00 0.00 0.00 45 1013.1
20260507154036 23 241 4.8 11.3 0.00 0.00 0.00 45 1013.1
20260507153209 23 253 3.2 9.7 0.00 0.00 0.00 44 1012.9
20260507152106 23 228 4.8 12.9 0.00 0.00 0.00 45 1013.1
20260507151123 23 242 4.8 12.9 0.00 0.00 0.00 45 1013.0
20260507150020 24 212 1.6 11.3 0.00 0.00 0.00 45 1012.9
20260507145017 23 241 6.4 16.1 0.00 0.00 0.00 45 1013.0
20260507144100 23 128 1.6 4.8 0.00 0.00 0.00 44 1012.9
20260507143055 23 229 4.8 12.9 0.00 0.00 0.00 44 1013.1
20260507142032 23 215 3.2 9.7 0.00 0.00 0.00 45 1013.0
20260507141030 23 219 6.4 12.9 0.00 0.00 0.00 45 1012.9
20260507140027 23 217 4.8 12.9 0.00 0.00 0.00 46 1013.1
20260507135021 23 161 3.2 4.8 0.00 0.00 0.00 46 1013.1
20260507134158 23 265 3.2 6.4 0.00 0.00 0.00 45 1013.2
20260507133035 23 228 3.2 9.7 0.00 0.00 0.00 46 1013.4
20260507132032 23 214 3.2 6.4 0.00 0.00 0.00 47 1013.4
20260507131030 22 236 4.8 12.9 0.00 0.00 0.00 47 1013.5
20260507130147 22 266 3.2 11.3 0.00 0.00 0.00 49 1013.4
20260507125124 22 262 4.8 12.9 0.00 0.00 0.00 48 1013.6
20260507124021 22 263 4.8 14.5 0.00 0.00 0.00 50 1013.6
20260507123019 23 178 6.4 16.1 0.00 0.00 0.00 49 1013.7
20260507122036 22 275 3.2 11.3 0.00 0.00 0.00 50 1013.8
20260507121033 22 214 3.2 12.9 0.00 0.00 0.00 50 1013.8
20260507120030 21 259 4.8 11.3 0.00 0.00 0.00 49 1014.0
20260507115048 21 240 6.4 17.7 0.00 0.00 0.00 52 1014.0
20260507114125 22 264 4.8 14.5 0.00 0.00 0.00 52 1014.1
20260507113042 21 249 4.8 14.5 0.00 0.00 0.00 53 1014.1
20260507112120 21 234 4.8 16.1 0.00 0.00 0.00 54 1014.2
20260507111017 21 226 6.4 17.7 0.00 0.00 0.00 55 1014.1
20260507110054 20 271 6.4 14.5 0.00 0.00 0.00 58 1014.2
20260507105112 19 273 4.8 11.3 0.00 0.00 0.00 62 1014.2
20260507104028 19 296 3.2 11.3 0.00 0.00 0.00 61 1014.3
20260507103046 21 293 4.8 12.9 0.00 0.05 0.00 58 1014.4
20260507102023 21 203 3.2 6.4 0.00 0.10 0.00 60 1014.4
20260507101100 21 246 1.6 6.4 0.00 0.10 0.00 63 1014.4
20260507100017 20 255 4.8 11.3 0.00 0.10 0.00 63 1014.4
20260507095035 20 252 3.2 11.3 0.00 0.10 0.00 62 1014.5
20260507094033 20 303 1.6 11.3 0.00 0.10 0.00 62 1014.4
20260507093030 19 236 6.4 14.5 0.00 0.10 0.00 62 1014.4
20260507092147 19 307 4.8 11.3 0.00 0.10 0.00 62 1014.5
20260507091144 18 278 3.2 9.7 0.00 0.10 0.00 63 1014.6
20260507090020 18 281 3.2 9.7 0.00 0.10 0.00 63 1014.4
20260507085058 18 274 3.2 4.8 0.00 0.10 0.00 65 1014.4
20260507084055 18 303 1.6 4.8 0.00 0.10 0.00 67 1014.3
20260507083032 18 283 3.2 4.8 0.00 0.10 0.00 67 1014.3
20260507082030 18 237 3.2 11.3 0.00 0.10 0.00 68 1014.4
20260507081209 18 254 3.2 6.4 0.00 0.13 0.00 71 1014.3
20260507080024 17 223 1.6 4.8 0.00 0.13 0.00 74 1014.2
20260507075121 17 206 1.6 4.8 0.00 0.13 0.00 75 1014.3
20260507074018 17 227 1.6 4.8 0.00 0.13 0.00 73 1014.1
20260507073116 18 196 1.6 4.8 0.00 0.15 0.00 70 1014.2
20260507072213 17 190 1.6 4.8 0.00 0.15 0.00 73 1014.1
20260507071049 17 145 1.6 4.8 0.00 0.15 0.00 75 1013.9
20260507070207 17 86 1.6 3.2 0.00 0.15 0.00 77 1013.9
20260507065124 16 198 0.0 1.6 0.00 0.15 0.00 80 1013.8
20260507064121 15 100 0.0 1.6 0.00 0.18 0.00 83 1013.8
20260507063018 15 0.0 0.0 0.00 0.20 0.00 89 1013.7
20260507062116 14 0.0 0.0 0.00 0.23 0.00 92 1013.7
20260507061113 13 0.0 0.0 0.00 0.28 0.00 92 1013.7
20260507060210 13 97 0.0 1.6 0.00 0.36 0.00 93 1013.8
20260507055147 13 0.0 0.0 0.00 0.43 0.00 93 1013.5
20260507054144 13 95 0.0 1.6 0.00 0.51 0.00 94 1013.5
20260507053141 13 0.0 0.0 0.00 0.61 0.00 95 1013.3
20260507052119 12 0.0 0.0 0.00 0.74 0.00 95 1013.1
20260507051036 12 100 0.0 3.2 0.00 0.89 0.00 96 1013.0
20260507044148 11 0.0 0.0 0.00 1.07 0.00 94 1012.8
20260507043104 11 0.0 0.0 0.00 1.12 0.00 94 1012.8
20260507042141 11 0.0 0.0 0.00 1.22 0.00 94 1012.6
20260507041119 11 0.0 0.0 0.00 1.24 0.00 93 1012.7
20260507040035 12 0.0 0.0 0.00 1.37 0.00 93 1012.5
20260507035133 12 3 0.0 1.6 0.00 1.40 0.00 93 1012.3
20260507034030 12 349 0.0 1.6 0.00 1.40 0.00 93 1012.4
20260507033207 12 0.0 0.0 0.00 1.40 0.00 93 1012.4
20260507032044 12 0.0 0.0 0.00 1.40 0.00 93 1012.2
20260507030042 12 109 3.2 4.8 0.00 1.40 0.00 93 1012.3
20260507025200 12 97 3.2 4.8 0.00 1.40 0.00 92 1012.2
20260507024055 12 85 3.2 4.8 0.00 1.40 0.00 92 1012.2
20260507023031 12 117 1.6 4.8 0.00 1.40 0.00 91 1012.1
20260507022148 12 89 3.2 6.4 0.00 1.40 0.00 91 1012.0
20260507021125 12 88 3.2 4.8 0.00 1.40 0.00 91 1012.2
20260507015140 12 91 3.2 6.4 0.00 1.40 0.00 90 1012.0
20260507014037 12 86 3.2 6.4 0.00 1.40 0.00 90 1012.0
20260507013115 13 101 3.2 4.8 0.00 1.40 0.00 90 1011.8
20260507012133 13 102 3.2 6.4 0.00 1.40 0.00 90 1011.8
20260507010025 13 88 3.2 9.7 0.00 1.40 0.00 92 1011.9
20260507005042 13 86 1.6 4.8 0.00 1.40 0.00 92 1012.0
20260507004140 13 82 3.2 6.4 0.00 1.40 0.00 92 1012.1
20260507003117 12 80 3.2 6.4 0.00 1.40 0.00 92 1012.1
20260507002154 12 110 3.2 4.8 0.00 1.40 0.00 92 1012.1
20260507001152 13 89 3.2 4.8 0.00 1.40 0.00 93 1012.1
20260507000129 13 85 3.2 6.4 0.00 1.40 0.00 92 1011.8
20260506235108 13 96 3.2 4.8 0.00 1.40 0.00 92 1011.8
20260506234103 13 96 3.2 9.7 0.00 1.40 0.00 91 1011.7
20260506233142 13 90 1.6 3.2 0.00 1.40 0.00 91 1011.8
20260506232101 13 96 0.0 3.2 0.00 1.40 0.00 91 1011.9
20260506231038 13 84 0.0 3.2 0.00 1.40 0.00 91 1011.7
20260506230036 13 98 1.6 3.2 0.00 1.40 0.00 91 1011.6
20260506225050 13 75 0.0 3.2 0.00 1.40 0.00 92 1011.6
20260506224107 13 95 3.2 4.8 0.00 1.40 0.00 93 1011.6
20260506223024 13 82 1.6 6.4 0.00 1.40 0.00 93 1011.7
20260506222121 13 323 0.0 3.2 0.00 1.40 0.00 93 1011.6
20260506221018 13 344 1.6 3.2 0.00 1.40 0.00 93 1011.8
20260506220035 13 94 0.0 1.6 0.00 1.40 1.40 92 1011.7
20260506215032 13 92 0.0 3.2 0.00 1.40 1.40 92 1011.6
20260506214029 13 90 1.6 3.2 0.00 1.40 1.40 92 1011.6
20260506213026 13 90 4.8 9.7 0.00 1.40 1.40 92 1011.4
20260506212024 13 90 0.0 4.8 0.00 1.40 1.40 93 1011.6
20260506211021 14 93 1.6 4.8 0.00 1.40 1.40 93 1011.5
20260506210040 14 80 4.8 6.4 0.00 1.40 1.40 94 1011.4
20260506205035 14 86 1.6 4.8 0.00 1.40 1.40 94 1011.3
20260506204213 15 89 4.8 11.3 0.00 1.40 1.40 93 1011.3
20260506203030 15 99 3.2 6.4 0.00 1.40 1.40 92 1011.3
20260506202107 15 93 1.6 4.8 0.00 1.40 1.40 92 1011.1
20260506201205 15 86 4.8 9.7 0.00 1.40 1.40 91 1010.9
20260506195039 16 100 4.8 6.4 0.00 1.40 1.40 90 1011.1
20260506194056 16 93 4.8 12.9 0.00 1.40 1.40 89 1011.1
20260506192030 16 79 4.8 9.7 0.00 1.40 1.40 87 1010.9
20260506191027 16 81 4.8 12.9 0.00 1.40 1.40 87 1010.9
20260506190024 16 103 3.2 9.7 0.00 1.40 1.40 87 1010.4
20260506185020 16 114 0.0 3.2 0.00 1.40 1.40 86 1010.2
20260506184057 16 119 1.6 3.2 0.00 1.40 1.40 86 1010.2
20260506183033 17 86 3.2 11.3 0.00 1.40 1.40 85 1010.1